Dublin, Ireland
Current Conditions -  °F | °C
As of 8:30 PM on Thursday 18 Dec 2014 (Local Time) from EIDW Reporting Station
Light Rain Light Rain  
Wind Chill:   Ceiling: 1700
Heat Index:   Visibility: 6mi
Dew Point:   Wind: 20mph
Humidity: 87%   Direction: 250°WSW
Pressure: 29.65"   Gusts: NA
Location:  53.33°N, 6.25°W
Report Text: EIDW 182030Z 25017KT 9999 -RA FEW008 SCT014 BKN017 09/07 Q1004 NOSIG
Loading
Personal Weather Stations






























Interactive Weather Map New forecast layout! Learn more

10-Day Weather Forecast

Advertisements
Track Severe Weather on mobile